Regional Weather Roundup
Issued by NWS

Home | Current Version | Previous Version | Graphics & Text | Print | Product List | Glossary On
Versions: 1 2 3 4 5 6 7 8 9 10 11 12 13 14 15 16 17 18 19 20 21 22 23 24 25 26 27 28 29 30 31 32 33 34 35 36 37 38 39 40 41 42 43 44 45 46 47 48 49 50
000
ASUS43 KLOT 062100
RWRIL

ILLINOIS REGIONAL WEATHER ROUNDUP
NATIONAL WEATHER SERVICE CHICAGO/ROMEOVILLE IL
300 PM CST FRI MAR 06 2015

NOTE: "FAIR" INDICATES FEW OR NO CLOUDS BELOW 12,000 FEET WITH NO
SIGNIFICANT WEATHER AND/OR OBSTRUCTIONS TO VISIBILITY.

* THESE STATIONS ARE NOT UNDER NWS QUALITY CONTROL. THEY ALSO MAY NOT
  REPORT WEATHER SUCH AS PRECIPITATION OR FOG.

ILZ001-002-007-009-015-016-024-062200-
NORTHWEST ILLINOIS

CITY           SKY/WX    TMP DP  RH WIND       PRES   REMARKS
MOLINE         SUNNY     35  21  56 SW9       30.19F WCI  28
STERLING*      SUNNY     34  21  60 W10G17    30.21S WCI  26
$$

ILZ003-004-008-010-011-017-018-062200-
NORTH CENTRAL ILLINOIS

CITY           SKY/WX    TMP DP  RH WIND       PRES   REMARKS
ROCKFORD       MOSUNNY   28  16  60 SW15G22   30.19F WCI  16
$$

ILZ005-006-012>014-019>023-062200-
NORTHEAST ILLINOIS

CITY           SKY/WX    TMP DP  RH WIND       PRES   REMARKS
CHICAGO-OHARE  MOSUNNY   27  12  53 SW18G26   30.21S WCI  14
CHICAGO-MIDWAY MOSUNNY   27  13  55 SW20G30   30.24S WCI  13
AURORA         SUNNY     25  15  66 S16       30.23S WCI  12
WAUKEGAN       PTSUNNY   27  13  55 S24G33    30.17F WCI  12
DUPAGE AIRPORT SUNNY     25  14  63 S17G31    30.21F WCI  12
WHEELING       SUNNY     29  11  47 SW17G28   30.22F WCI  17
NORTHERLY ISL    N/A     26  10  50 S18         N/A  WCI  13
$$

LMZ740>746-062200-
SOUTHERN LAKE MICHIGAN

STATION/POSITION SKY/WX   TEMP    WIND        PRES    VSBY  WAVE
                          AIR SEA DIR/SP/G                  HT/PER
                          (F)     (DEG/KT/KT) (MB)    (MI)  (FT/S)
WAUKEGAN HARBOR            29                   N/A
HARRISON CRIB              22     190/ 27/ 33   N/A
BURNHAM HARBOR             26     220/ 12/ 22   N/A
CALUMET HARBOR             25     180/ 10/ 17 1022.6F
MICHIGAN CITY              21     160/ 18/ 23   N/A
$$

ILZ025>027-034>036-040-047-049-050-058-095>099-062200-
WEST-CENTRAL ILLINOIS

CITY           SKY/WX    TMP DP  RH WIND       PRES   REMARKS
QUINCY         SUNNY     41  26  55 SW10      30.22F
$$

ILZ028>032-037-038-041>044-048-051>054-059>061-062200-
CENTRAL ILLINOIS

CITY           SKY/WX    TMP DP  RH WIND       PRES   REMARKS
DECATUR        SUNNY     30  16  56 S21G28    30.30F WCI  17
PEORIA         SUNNY     32  20  61 S15       30.25F WCI  22
SPRINGFIELD    SUNNY     33  20  58 S16       30.27F WCI  23
TAYLORVILLE    NOT AVBL
$$

ILZ033-039-045-046-055>057-062-063-062200-
EAST-CENTRAL ILLINOIS

CITY           SKY/WX    TMP DP  RH WIND       PRES   REMARKS
CHAMPAIGN      SUNNY     25  15  66 S22       30.31R WCI  10
MATTOON        SUNNY     26  12  55 S24G30    30.30F WCI  11
$$

ILZ079-100>102-062200-
SOUTHWEST ILLINOIS

CITY           SKY/WX    TMP DP  RH WIND       PRES   REMARKS
BELLEVILLE     SUNNY     37  23  56 VRB7G17   30.32F WCI  32
CAHOKIA*       SUNNY     45  24  43 S9G18     30.30F
$$

ILZ064>066-069>071-074>076-080>082-084>086-088>090-092>094-062200-
SOUTH-CENTRAL ILLINOIS

CITY           SKY/WX    TMP DP  RH WIND       PRES   REMARKS
CARBONDALE     SUNNY     30  13  49 S21       30.43F WCI  17
MARION         SUNNY     30  14  51 S17       30.43F WCI  18
MT. VERNON     SUNNY     34  18  51 S16       30.39F WCI  23
$$

ILZ067-068-072-073-078-083-087-091-062200-
SOUTHEAST ILLINOIS

CITY           SKY/WX    TMP DP  RH WIND       PRES   REMARKS
LAWRENCEVILLE  SUNNY     27  11  51 S18       30.42F WCI  14
$$

ABBREVIATIONS USED IN REMARKS
   TC - TEMPERATURE IN CELSIUS
  WCI - WIND CHILL INDEX
   HX - HEAT INDEX
  VSB - VISIBILITY
$$




USA.gov is the U.S. government's official web portal to all federal, state and local government web resources and services.